Terminal Aerodrome Forecast
Issued by NWS

Home | Current Version | Previous Version | Text Only | Print | Product List | Glossary On
Versions: 1 2 3 4 5 6 7 8 9 10 11 12 13 14 15
370
FTUS44 KJAN 181006 AAA
TAFHKS
TAF AMD
KHKS 181006Z 1810/1906 00000KT 1SM BR VCSH OVC005
     FM181700 34003KT 3SM BR VCSH OVC006
     FM182100 10004KT P6SM VCSH OVC008
     FM190300 00000KT 1/2SM FG OVC004=

USA.gov is the U.S. government's official web portal to all federal, state and local government web resources and services.